Tracking 21676 objects as of 29-Oct-2020
HD Live streaming from Space Station
objects crossing your sky now

EKRAN 4

Track EKRAN 4 now!
EKRAN 4 is classified as:


NORAD ID: 11561
Int'l Code: 1979-087A
Perigee: 35,781.8 km
Apogee: 35,824.3 km
Inclination: 10.5 °
Period: 1,436.6 minutes
Semi major axis: 42174 km
RCS: 0.1995 m2 (medium)
Launch date: October 3, 1979
Source: Commonwealth of Independent States (former USSR) (CIS)
Launch site: TYURATAM MISSILE AND SPACE COMPLEX (TTMTR)
aabbcc
Your satellite tracking list
Your tracking list is empty




NASA's NSSDC Master Catalog

Two Line Element Set (TLE):
1 11561U 79087A   20302.58703722 +.00000036 +00000-0 +00000-0 0  9995
2 11561 010.5103 308.1723 0005041 173.3686 185.6444 01.00238549026736
Source of the keplerian elements: AFSPC